Temp
11 9 9 10 11 12 13 13 13 13 12 12 12 11 11 11 10 11 10 10 11 10
9 9 10 9 9 9 10 11 11 11 11 11 11 11 11 11 11 10 10 10 10 10
9 9 10 10 9 9 10 10 10 10 11 10 10 10 10 10 10 10 10 10 10 10
9 9 8 9 8 9 10 10 9 10 10 10 10 10 9 9 9 9 9 9 9 9
6 6 6 7 7 6 8 8 9 8 8 9 9 8 8 8 8 8 8 8 9 9
5 6 3 4 5 3 5 5 6 6 6 7 7 7 8 8 7 7 7 7 8 8
3 3 3 3 3 4 5 5 6 6 7 6 6 7 6 6 6 6 6 6 6 6
3 3 4 4 5 5 6 6 6 5 5 6 6 6 6 6 6 6 6 6 6 5
3 3 4 4 4 4 4 4 4 4 4 4 4 4 4 4 4 4 4 5 5 5
3 2 3 3 3 4 4 3 3 3 3 3 3 3 3 3 3 3 3 3 3 3
2 2 2 2 2 2 2 2 2 2 2 1 1 1 1 1 0 0 0 -0 0 -0
1 1 1 1 0 0 -0 -0 -0 -0 -0 -0 -0 -1 -1 -1 -2 -3 -3 -3 -4 -3
1 0 0 0 0 -0 -0 -1 -1 -1 -2 -2 -3 -4 -4 -6 -5 -5 -5 -5 -5 -5
-0 -1 -1 -2 -2 -3 -3 -3 -3 -3 -3 -3 -4 -4 -4 -6 -6 -6 -5 -5 -5 -6
Height
1435 1440 1443 1446 1449 1451 1453 1455 1458 1459 1461 1461 1462 1463 1463 1464 1465 1466 1467 1469 1470 1473
1432 1437 1440 1443 1445 1447 1448 1450 1451 1452 1453 1454 1454 1455 1456 1456 1456 1456 1458 1460 1462 1465
1431 1433 1436 1438 1439 1441 1442 1444 1446 1447 1448 1449 1449 1448 1448 1448 1449 1450 1450 1452 1455 1457
1429 1431 1433 1435 1437 1437 1439 1440 1442 1441 1438 1444 1443 1445 1445 1447 1447 1447 1448 1448 1449 1451
1431 1432 1432 1434 1434 1435 1434 1435 1434 1435 1435 1437 1440 1441 1442 1443 1442 1443 1444 1445 1445 1445
1433 1432 1437 1434 1437 1439 1431 1433 1434 1435 1436 1436 1437 1439 1440 1439 1438 1439 1439 1438 1438 1440
1442 1442 1440 1438 1440 1434 1433 1434 1434 1435 1436 1437 1437 1438 1438 1437 1435 1435 1434 1434 1435 1435
1446 1445 1443 1443 1443 1439 1438 1437 1438 1438 1438 1438 1437 1437 1436 1435 1434 1434 1433 1433 1432 1432
1449 1446 1444 1443 1441 1439 1438 1437 1438 1438 1437 1436 1435 1434 1433 1432 1431 1430 1429 1427 1427 1425
1447 1445 1443 1442 1441 1439 1438 1438 1437 1436 1435 1433 1432 1431 1430 1428 1426 1425 1424 1422 1420 1419
1447 1445 1443 1441 1440 1439 1438 1436 1435 1433 1432 1431 1429 1428 1426 1424 1422 1421 1419 1417 1416 1414
1446 1443 1441 1440 1439 1437 1435 1434 1432 1431 1429 1429 1427 1425 1424 1421 1418 1417 1415 1414 1412 1409
1444 1442 1441 1439 1437 1436 1434 1433 1431 1429 1427 1425 1423 1421 1418 1416 1415 1414 1413 1411 1409 1406
1443 1441 1439 1437 1435 1433 1431 1429 1426 1424 1423 1421 1419 1417 1414 1412 1411 1409 1408 1406 1403 1400
Wind_Speed
24 24 22 19 20 23 27 28 26 26 27 31 34 31 33 35 36 41 40 47 41 40
20 20 18 15 17 19 21 22 24 24 24 22 26 26 32 35 35 40 37 41 41 40
17 18 18 19 19 21 23 23 20 26 26 22 16 13 20 24 28 35 38 38 38 40
12 13 12 15 19 21 23 26 25 25 25 22 19 14 14 16 10 7 12 20 26 29
18 17 22 19 16 16 18 19 15 11 13 10 6 5 10 17 18 20 21 21 17 16
23 18 17 19 16 13 17 13 8 7 4 3 1 3 4 7 7 9 11 14 19 22
20 18 18 16 13 12 13 10 8 7 4 2 2 4 6 6 9 12 13 15 17 19
13 14 13 12 11 10 7 6 6 6 5 5 5 7 9 10 11 12 14 15 17 18
8 9 9 9 9 9 7 6 6 6 6 8 9 11 12 14 16 17 18 19 20 21
10 9 9 9 9 9 8 8 9 9 10 10 12 14 15 16 17 18 20 22 24 25
9 9 10 10 10 9 9 10 10 11 12 13 14 15 16 17 17 18 18 20 21 22
11 11 11 10 10 10 11 11 12 13 13 13 12 12 12 13 15 15 15 16 16 18
11 10 10 10 10 10 10 10 10 10 10 11 12 13 14 12 11 12 14 15 16 17
10 9 9 9 10 10 11 12 13 14 14 15 17 18 20 16 13 14 17 17 17 19
Wind_Direction
228 218 223 232 231 236 240 245 249 252 255 252 255 254 257 257 251 247 253 249 242 241
205 213 221 234 241 245 254 257 258 259 258 259 252 255 258 258 257 250 251 243 249 246
201 218 231 239 243 244 249 252 256 249 247 253 240 232 236 231 240 249 243 246 247 248
220 243 245 250 249 246 243 245 233 211 187 199 206 230 244 243 253 260 253 242 242 250
120 131 122 127 129 114 174 181 156 135 156 173 196 251 271 256 258 263 262 261 264 261
87 91 84 87 102 90 80 80 84 79 73 71 43 280 260 281 280 285 281 276 273 264
84 88 81 74 74 70 71 71 68 66 44 25 324 301 320 311 296 289 284 280 279 279
78 79 75 77 75 74 74 54 38 23 17 352 327 313 307 305 300 297 293 289 287 286
74 68 64 57 47 41 41 36 24 6 345 337 329 320 313 311 308 306 303 301 296 294
58 50 42 30 17 10 6 2 352 347 343 336 329 324 319 314 311 309 307 304 303 301
24 14 8 3 2 3 358 353 348 343 338 334 330 324 320 318 316 315 313 312 310 309
5 1 358 355 352 352 350 346 345 342 342 341 341 336 330 327 325 322 319 316 315 308
345 339 335 331 329 334 340 346 354 358 356 358 358 359 7 359 339 328 324 323 318 321
326 325 328 332 342 349 355 358 1 358 360 359 355 358 1 360 351 339 330 325 322 321